Regional Weather Roundup
Issued by NWS

Home | Current Version | Previous Version | Graphics & Text | Print | Product List | Glossary On
Versions: 1 2 3 4 5 6 7 8 9 10 11 12 13 14 15 16 17 18 19 20 21 22 23 24 25 26 27 28 29 30 31 32 33 34 35 36 37 38 39 40 41 42 43 44 45 46 47 48 49 50
000
ASUS43 KMKX 171800
RWRWI

WISCONSIN REGIONAL WEATHER ROUNDUP
NATIONAL WEATHER SERVICE MILWAUKEE/SULLIVAN WI
100 PM CDT WED SEP 17 2014

NOTE: "FAIR" INDICATES FEW OR NO CLOUDS BELOW 12,000 FEET WITH NO
SIGNIFICANT WEATHER AND/OR OBSTRUCTIONS TO VISIBILITY.

WIZ001-002-006>008-014>016-023>028-171900-
NORTHWEST WISCONSIN

CITY           SKY/WX    TMP DP  RH WIND       PRES   REMARKS
SUPERIOR ARPT  FAIR      69  51  53 W5        29.94S
ASHLAND        FAIR      61  52  72 NE20      29.98R
6HR MIN TEMP:  44; 6HR MAX TEMP:  68;

HAYWARD        FAIR      69  48  47 MISG      29.96R
6HR MIN TEMP:  36; 6HR MAX TEMP:  69;

SIREN          FAIR      68  51  53 CALM      29.96S
RICE LAKE      FAIR      66  50  54 SW3       29.98S
LADYSMITH      PTSUNNY   66  52  60 W5        29.98S
EAU CLAIRE     FAIR      69  51  52 VRB5      29.96S
6HR MIN TEMP:  45; 6HR MAX TEMP:  69;

MENOMONIE      NOT AVBL
NEW RICHMOND   NOT AVBL
OSCEOLA        NOT AVBL
$$

WIZ003>005-009-010-017-018-171900-
NORTH CENTRAL WISCONSIN

CITY           SKY/WX    TMP DP  RH WIND       PRES   REMARKS
WOODRUFF       SUNNY     64  46  51 N8        29.95S
RHINELANDER    SUNNY     65  46  50 W12       29.96S
6HR MIN TEMP:  42; 6HR MAX TEMP:  66;

EAGLE RIVER    SUNNY     65  43  44 W6        29.94S
LAND O LAKES   MOSUNNY   66  44  43 NW8       29.94F
PHILLIPS       PTSUNNY   66  49  55 W5        29.95F
TOMAHAWK       MOSUNNY   64  46  52 CALM      29.96S
MEDFORD        FAIR      64  50  59 SW8       29.97S
MERRILL        PTSUNNY   66  49  53 NW6       29.96S
$$

WIZ029-030-035-036-043>047-171900-
CENTRAL WISCONSIN

CITY           SKY/WX    TMP DP  RH WIND       PRES   REMARKS
WAUSAU         SUNNY     67  48  50 W9        29.95F
6HR MIN TEMP:  40; 6HR MAX TEMP:  68;

MOSINEE        NOT AVBL
MARSHFIELD     PTSUNNY   66  50  56 W5        29.98S
6HR MIN TEMP:  41; 6HR MAX TEMP:  68;

STEVENS POINT  FAIR      63  47  55 W10G16    29.98S
WAUPACA        NOT AVBL
WAUTOMA        NOT AVBL
WISC RAPIDS    FAIR      68  48  48 SW8       29.99F
6HR MIN TEMP:  38; 6HR MAX TEMP:  68;

CAMP DOUGLAS   NOT AVBL
$$

WIZ011>013-019>022-031-037>040-048>050-171900-
NORTHEAST WISCONSIN

CITY           SKY/WX    TMP DP  RH WIND       PRES   REMARKS
ANTIGO         MOSUNNY   65  48  55 NW8G16    29.96S
STURGEON BAY   SUNNY     64  46  52 W10       29.96S
6HR MIN TEMP:  48; 6HR MAX TEMP:  64;

GREEN BAY      MOSUNNY   69  48  47 W13       29.96F
6HR MIN TEMP:  42; 6HR MAX TEMP:  69;

MANITOWOC      NOT AVBL
APPLETON       MOSUNNY   66  46  48 W9        29.98F
CLINTONVILLE   PTSUNNY   66  45  45 W7        29.96F
OSHKOSH        MOSUNNY   67  49  52 W9        29.98S
6HR MIN TEMP:  45; 6HR MAX TEMP:  68;

$$

WIZ032>034-041-042-053>061-171900-
SOUTHWEST WISCONSIN

CITY           SKY/WX    TMP DP  RH WIND       PRES   REMARKS
LA CROSSE      PTSUNNY   68  52  56 VRB5      29.98F
6HR MIN TEMP:  50; 6HR MAX TEMP:  69;

SPARTA         PTSUNNY   67  48  50 SW5       29.99F
VIROQUA        FAIR      65  48  55 S5        30.00F
BOSCOBEL       FAIR      69  49  48 VRB5      30.00F
6HR MIN TEMP:  45; 6HR MAX TEMP:  69;

PRAIRIE DU CHI NOT AVBL
PLATTEVILLE    PTSUNNY   65  48  53 SW7       30.02S
$$

WIZ056-057-062-063-064-067-068-171900-
SOUTH CENTRAL WISCONSIN

CITY           SKY/WX    TMP DP  RH WIND       PRES   REMARKS
BARABOO/DELLS  FAIR      66  44  44 W7        30.00S
LONE ROCK      NOT AVBL
WATERTOWN      SUNNY     66  46  49 SW6       30.00S
MADISON        FAIR      65  44  46 VRB3      30.00F
6HR MIN TEMP:  40; 6HR MAX TEMP:  66;

MIDDLETON      FAIR      67  44  43 W8        30.01S
MONROE         CLOUDY    64  46  52 S3        30.02R
JANESVILLE     MOSUNNY   68  46  45 S6        30.00F
$$

WIZ051-052-058>065-066-070>072-171900-
SOUTHEAST WISCONSIN

CITY           SKY/WX    TMP DP  RH WIND       PRES   REMARKS
MILWAUKEE      MOSUNNY   67  44  43 SW8       30.00F
6HR MIN TEMP:  48; 6HR MAX TEMP:  67;

WAUKESHA       SUNNY     64  45  48 CALM      30.01F
MILWAUKEE/TIMM SUNNY     63  43  48 SW8       30.01S
RACINE         SUNNY     67  44  43 SW10      30.02F
6HR MIN TEMP:  48; 6HR MAX TEMP:  67;

BURLINGTON     MOSUNNY   65  44  45 S6        30.01F
KENOSHA        MOSUNNY   65  46  50 VRB7      30.01F
6HR MIN TEMP:  43; 6HR MAX TEMP:  66;

FOND DU LAC    MOSUNNY   67  46  47 SW10G16   29.99S
6HR MIN TEMP:  42; 6HR MAX TEMP:  67;

SHEBOYGAN      MOSUNNY   67  45  45 W9        29.98F
6HR MIN TEMP:  41; 6HR MAX TEMP:  68;

WEST BEND      MOSUNNY   64  43  45 W6        30.00R
JUNEAU         MOSUNNY   64  47  53 W7        30.01S
$$

LSZ147-162-171900-
LAKE SUPERIOR

STATION/POSITION TIME  TEMP    WIND        PRES    WAVE
                       AIR SEA DIR/SP/G            HT/PER
                 (UTC) (F)     (DEG/KT/KT) (MB)    (FT/S)
W MID LAKE BUOY  1650   44 45   60/ 19/ 23 1015.8R   4/ 5
DEVILS ISLAND    1700   47      60/ 19/ 21 1016.1R
PORT WING        1700   56      20/ 15/ 18 1014.9R
SAXON HARBOR     1700   59      30/  7/  7 1014.9R
$$

LMZ867-665-643>646-171900-
LAKE MICHIGAN

STATION/POSITION TIME  TEMP    WIND        PRES    WAVE
                       AIR SEA DIR/SP/G            HT/PER
                 (UTC) (F)     (DEG/KT/KT) (MB)    (FT/S)
N MID LAKE BUOY  1650   58 58  230/ 10/ 10 1014.2F   1/ 4
NORTHPORT PIER   1700   65     250/  5/ 10 1013.9F
KEWAUNEE LAKESHO 1700   65     270/  7/ 12 1014.0F
SHEBOYGAN LAKESH 1700   63 49  280/  5/  6 1015.7F
PORT WASHINGTON  1700   68     320/  2/  7 1015.9F
ATWATER BUOY     1700   61     160/  2/  4 1017.0F
MILWAUKEE LAKESH 1700   64     250/  5/  8   N/A
S MID LAKE BUOY  1650   61 65  270/  6/  8 1016.9S   1/ 4
KENOSHA   LAKESH 1700   64     110/  6/  6 1016.3S
$$

TC  - TEMPERATURE IN CELSIUS
VSB - VISIBILITY IN STATUTE MILES
WCI - WIND CHILL INDEX
HX  - HEAT INDEX




USA.gov is the U.S. government's official web portal to all federal, state and local government web resources and services.